Regional Weather Roundup
Issued by NWS Albany, NY

Home | Current Version | Previous Version | Text Only | Print | Product List | Glossary On
Versions: 1 2 3 4 5 6 7 8 9 10 11 12 13 14 15 16 17 18 19 20 21 22 23 24 25 26 27 28
000
ASUS41 KALY 260610
RWRALY

NEW YORK STATE HOURLY WEATHER ROUNDUP
NATIONAL WEATHER SERVICE ALBANY NY
200 AM EDT FRI MAY 26 2017

NOTE: "FAIR" INDICATES FEW OR NO CLOUDS BELOW 12,000 FEET WITH NO
SIGNIFICANT WEATHER AND/OR NO OBSTRUCTIONS TO VISIBILITY.

NYZ032-033-038>043-046>054-057>066-NYZ062>081-082-084-260700-
EAST


CITY           SKY/WX    TMP DP  RH WIND       PRES   REMARKS
ALBANY         CLOUDY    54  51  90 N7        29.54F
GLENS FALLS    CLOUDY    54  48  80 N9        29.56F
POUGHKEEPSIE   CLOUDY    55  52  89 NW5       29.49F
NEWBURGH       LGT RAIN  54  54 100 NE15      29.50F FOG
MONTGOMERY     LGT RAIN  55  53  93 N12       29.49F
WHITE PLAINS   LGT RAIN  55  53  93 NW10      29.47S FOG
ISLIP          LGT RAIN  57  56  96 N12       29.45S
NEW YORK CITY  LGT RAIN  58  56  93 N12       29.45F
CENTRAL PARK   CLOUDY    57  56  96 VRB3      29.48F
$$

NYZ005>009-017-018-044>046-055-056-260700-
CENTRAL


CITY           SKY/WX    TMP DP  RH WIND       PRES   REMARKS
FULTON         MOCLDY    57  52  83 VRB3      29.53S
SYRACUSE       MOCLDY    55  53  93 NE8       29.53S
ROME           CLOUDY    56  52  86 E3        29.56F
ELMIRA         CLOUDY    59  56  89 W3        29.51S
BINGHAMTON     LGT RAIN  54  53  97 N3        29.53R
MONTICELLO     CLOUDY    52  52 100 CALM      29.53F
$$

NYZ026>034-041>043-087-260700-
NORTH


CITY           SKY/WX    TMP DP  RH WIND       PRES   REMARKS
WATERTOWN      CLOUDY    55  55 100 NE7       29.55S
FORT DRUM      NOT AVBL
OGDENSBURG     CLOUDY    55  54  96 NE7       29.59S
MASSENA        CLOUDY    55  53  93 NE14      29.61F
SARANAC LAKE   CLOUDY    50  50 100 NE8       29.58F
PLATTSBURGH    CLOUDY    54  52  93 NW7       29.61F
$$

NYZ001>004-010>016-019>021-085-260700-
WEST


CITY           SKY/WX    TMP DP  RH WIND       PRES   REMARKS
NIAGARA FALLS  FOG       56  52  86 NW8       29.55R VSB 1
BUFFALO        CLOUDY    54  53  97 SW10      29.55S FOG
DUNKIRK        FOG       52  52 100 W5        29.58R VSB 1/4
JAMESTOWN      CLOUDY    54  50  87 W5        29.58R
WELLSVILLE     CLOUDY    54  52  93 NW6       29.57S
ROCHESTER      DRIZZLE   56  56 100 W5        29.54R FOG
PENN YAN       CLOUDY    56  53  90 CALM      29.53S FOG
$$

             KEY
       WCI = WIND CHILL INDEX
       VSB = VISIBILITY
       HX  = HEAT INDEX
$$




USA.gov is the U.S. government's official web portal to all federal, state and local government web resources and services.